This is the latest recevied weather packets stored in our database for station/object K8WEH. If no packets are shown the sender has not sent any weather packets the latest 10 day(s).
| Time | Temp. | Humidity | Pressure | Rain* | Wind** | Luminosity | Snow |
|---|---|---|---|---|---|---|---|
| 1777864543 | 8.89° C | 71% | 1017.1 hPa | 0.25 mm | - | - | - |
| 1777864236 | 8.89° C | 72% | 1017.1 hPa | 0.25 mm | - | - | - |
| 1777863935 | 8.89° C | 73% | 1017.1 hPa | 0.25 mm | - | - | - |
| 1777863636 | 8.89° C | 74% | 1017.1 hPa | 0.25 mm | - | - | - |
| 1777863335 | 8.89° C | 75% | 1017.1 hPa | 0.25 mm | - | - | - |
| 1777863035 | 9.44° C | 76% | 1017.3 hPa | 0.25 mm | - | - | - |
| 1777862735 | 9.44° C | 76% | 1017.5 hPa | 0.25 mm | - | - | - |
| 1777862434 | 9.44° C | 76% | 1017.2 hPa | 0.25 mm | - | - | - |
| 1777862135 | 10° C | 75% | 1017.1 hPa | 0.25 mm | - | - | - |
| 1777861835 | 10° C | 75% | 1017.3 hPa | 0.25 mm | - | - | - |
| 1777861535 | 10.56° C | 72% | 1017.1 hPa | 0.25 mm | - | - | - |
| 1777861234 | 10.56° C | 70% | 1017.1 hPa | 0 mm | - | - | - |
| 1777860933 | 10.56° C | 69% | 1017.1 hPa | 0 mm | - | - | - |
| 1777860634 | 10.56° C | 67% | 1017.1 hPa | 0 mm | - | - | - |
| 1777860334 | 10.56° C | 69% | 1017.1 hPa | 0 mm | - | - | - |
| 1777860033 | 10.56° C | 66% | 1017 hPa | 0 mm | - | - | - |
| 1777859733 | 10.56° C | 66% | 1016.9 hPa | 0 mm | - | - | - |
| 1777859433 | 10.56° C | 64% | 1016.9 hPa | 0 mm | - | - | - |
| 1777859133 | 10.56° C | 64% | 1017 hPa | 0 mm | - | - | - |
| 1777858833 | 10.56° C | 63% | 1017 hPa | 0 mm | - | - | - |
| 1777858532 | 11.11° C | 62% | 1016.9 hPa | 0 mm | - | - | - |
| 1777858236 | 11.11° C | 62% | 1016.8 hPa | 0 mm | - | - | - |
| 1777857993 | 11.11° C | 63% | 1016.7 hPa | 0 mm | - | - | - |
| 1777857631 | 11.11° C | 63% | 1016.5 hPa | 0 mm | - | - | - |
| 1777857333 | 11.11° C | 63% | 1016.5 hPa | 0 mm | - | - | - |
* Rain latest hour (hover to see other rain measurements)
** Current wind speed in m/s (hover to see current wind gust speed)